Regional Weather Roundup
Issued by NWS Kansas City/Pleasant Hill, MO

Home | Current Version | Previous Version | Graphics & Text | Print | Product List | Glossary Off
Versions: 1 2 3 4 5 6 7 8 9 10 11 12 13 14 15 16 17 18 19 20 21 22 23 24 25 26 27

000
ASUS43 KEAX 060410
RWREAX

WEATHER ROUNDUP FOR EASTERN KANSAS AND NORTHWEST MISSOURI
NATIONAL WEATHER SERVICE KANSAS CITY/PLEASANT HILL MO
1100 PM CDT THU MAY 05 2016

KSZ040-057-103>105-MOZ028-029-037-043-060500-
...KANSAS CITY METROPOLITAN AREA...

CITY           SKY/WX    TMP DP  RH WIND       PRES   REMARKS
K.C. INTL      CLEAR     60  38  43 SE5       30.05R
K.C. DOWNTOWN  CLEAR     61  43  51 CALM      30.04R
LEES SUMMIT    CLEAR     59  39  47 S3        30.05S
OLATHE - IXD   CLEAR     56  42  59 CALM      30.06R
OLATHE - OJC   CLEAR     56  46  69 CALM      30.06R
LAWRENCE       CLEAR     51  46  83 CALM      30.05R

$$

MOZ001>008-011>017-020>025-030>033-038>040-044>046-053-054-060500-
...NORTHERN AND CENTRAL MISSOURI...

CITY           SKY/WX    TMP DP  RH WIND       PRES   REMARKS
ST. JOSEPH     CLEAR     55  48  77 CALM      30.05R
MOSBY          CLEAR     52  48  87 CALM      30.05S
WARRENSBURG    CLEAR     54  41  62 CALM      30.05S
WHITEMAN AFB   CLEAR     53  41  64 S2        30.04R
CLINTON        CLEAR     50  45  81 CALM      30.05S
SEDALIA        CLEAR     59  34  39 CALM      30.06S
WARSAW         NOT AVBL
CHILLICOTHE      N/A     51  44  77 CALM      30.06R
KIRKSVILLE     CLEAR     45  41  86 CALM      30.04S

$$

MOZ041-047>049-056>058-063>065-088>090-097-060500-
...EASTERN AND SOUTHERN MISSOURI...

CITY           SKY/WX    TMP DP  RH WIND       PRES   REMARKS
ST. LOUIS INTL CLEAR     56  43  61 W3        30.03S
SPIRIT OF STL  CLEAR     48  46  93 W5        30.03S
COLUMBIA       CLOUDY    56  39  53 NE5       30.05R
JEFFERSON CITY CLOUDY    51  42  71 CALM      30.05R
ROLLA          PTCLDY    49  39  68 CALM      30.04R
OSAGE BEACH    CLEAR     46  32  57 CALM      30.05S
SPRINGFIELD    CLEAR     51  38  60 CALM      30.05R
JOPLIN         CLEAR     53  45  74 CALM      30.06R
WEST PLAINS    CLEAR     49  37  63 CALM      30.06R

$$

IAZ060-094-KSZ022-034>040-054-083-096-NEZ052-066-093-060500-
...KANSAS...SOUTHEAST NEBRASKA AND IOWA...

CITY           SKY/WX    TMP DP  RH WIND       PRES   REMARKS
TOPEKA         CLEAR     58  48  69 CALM      30.04S
MANHATTAN      CLEAR     57  45  64 S3        30.05R
EMPORIA        CLEAR     59  47  64 S6        30.06R
CHANUTE        CLEAR     55  46  71 E3        30.06R
WICHITA        CLEAR     59  47  64 CALM      30.06R
OMAHA          PTCLDY    61  47  59 SE7       30.00S
LINCOLN        CLEAR     60  44  55 S6        30.03R
FALLS CITY     CLEAR     63  40  42 S6        30.03R
LAMONI         CLEAR     57  41  55 SW7       30.03S
DES MOINES     CLEAR     58  38  47 S7        30.01R

$$





USA.gov is the U.S. government's official web portal to all federal, state and local government web resources and services.